SL-14 DEB, 45296

Orbit data source: Space-Track

SL-14 DEB, 45296 is space debris in LEO originally from a launch on Thu, 15 Aug 1991 UTC launched from the Plesetsk Missile And Space Complex (PKMTR). Debris objects in space refer to the collection of defunct objects orbiting the Earth. Examples of debris include non-operational satellites, rocket bodies, and fragments generated from explosions, collisions, or faulty payload assembly.

Loading next visibility...
SL-14 DEB details
Identifier
45296, 1991-056AJ
Orbit
LEO
Last TLE update4 weeks ago
Origin
Flag of CISRosgidromet (CIS)
ManufacturerUnknown
MissionSpacecraft
Bus & MotorUnknown
MassUnknown
Launch date (UTC)
1991-08-15 (33 years ago)
Launch vehicleUnknown
Launch site
Plesetsk Missile And Space Complex (PKMTR)
Object type
Payload
Rocket body
Debris
Shape & HBRUnknown
Radar Cross SectionSmall (<0.1 m²)

Expand to show TLE details & history

TLE from 4 weeks ago
0 SL-14 DEB
1 45296U 91056AJ  24365.61085832  .00017765  00000-0  16998-1 0  9990
2 45296  82.6386  71.4446 0191891 314.8943  43.6767 13.72434419240858
Epoch: 2024-12-30T14:39Z
Definitive object data (Epoch: 2024-12-30T14:39:38.158Z)
Latitude-0.00004°
Longitude112.00524°
Altitude892.766 km
Speed7.456 km/s
True Right ascension04h 45m 46s
True Declination0° 00' 00"
Sunlit
Object was in full shadow at TLE epoch
Visualization TLE readout
Latitude-34.93345°
Longitude87.60805°
Altitude971.559 km
Speed7.38 km/s
Apparent Right ascension03h 23m 32s
Apparent Declination-37° 09' 08"
Sunlit
Object is in daylight
Visualization observer readout
Local Sidereal Time15:42:26
Azimuth54.708° ENE
Elevation-85.385°
Doppler factor1
Orbital elements
Apogee altitude1,129.356 km
Perigee altitude846.657 km
Semi-major axis7,366.144 km
Eccentricity0.0191891
Inclination82.6386°
RAAN71.4446°
Arg. of periapsis314.8943°
True anomaly45.22184°
Mean anomaly43.6767°
Eccentric anomaly44.44659°
Mean motion3.43307 °/min
BSTAR0.016998
Orbital period104.86 mins
Loading maneuver chart data...
Loading historical data...
Loading historical data...
Loading historical data...
Loading historical data...
Loading historical data...
Loading historical data...
Loading historical data...

SL-14 DEB Visibility forecast

Observer location: undefined°, undefined

Span
Click to sort rows by Start time (UTC) header in descending order
Start Az.
Max El. time (UTC)
Max El. Az.
Max El.
End time (UTC)
End Az.
7 mins2025-01-24 15:14:15.832Z317.121° NNW2025-01-24 15:18:15.832Z279.002° WNW16.567°2025-01-24 15:21:15.832Z248.001° W
9 mins2025-01-25 01:14:15.832Z125.027° SE2025-01-25 01:18:15.832Z81.057° E22.796°2025-01-25 01:23:15.832Z33.757° NE
11 mins2025-01-25 02:58:15.832Z208.714° SW2025-01-25 03:03:15.832Z282.501° WNW39.718°2025-01-25 03:09:15.832Z357.142° N
7 mins2025-01-25 12:13:15.832Z36.041° NE2025-01-25 12:16:15.832Z69.721° E19.451°2025-01-25 12:20:15.832Z111.506° ESE
11 mins2025-01-25 13:57:15.832Z343.235° N2025-01-25 14:02:15.832Z272.211° WNW41.485°2025-01-25 14:08:15.832Z188.842° SSW
|